Location: Asheville, NC
(35.6000°N, 82.5500°W)
Time: 00:08:55
(UTC-04:00)

HO-68 - Pass Details

Date: 10 March 2018
Orbit: 1192 x 1205 km, 100.1° (Epoch: 20 June)

Event Time Altitude Azimuth Distance (km) Brightness Sun altitude
Rises 06:01:20 0° 33° (NNE) 4,114 ? -10.3°
Reaches altitude 10° 06:05:00 10° 51° (NE) 3,146 ? -9.6°
Maximum altitude 06:09:42 18° 93° (E) 2,561 ? -8.6°
Drops below altitude 10° 06:14:23 10° 134° (SE) 3,136 ? -7.6°
Sets 06:18:00 0° 152° (SSE) 4,096 ? -6.9°
